Weather History for Pittsburg, KS

Change the Weather History Date:

Saturday, November 10, 2012

  Actual Average (KJLN) Record (KJLN)
Temperature  
Mean Temperature 70 °F 51 °F  
Max Temperature 76 °F 62 °F 79 °F (1949)
Min Temperature 63 °F 40 °F 19 °F (1960)
Degree Days  
Heating Degree Days 0 14  
Month to date heating degree days 125  
Since 1 July heating degree days 377  
Cooling Degree Days 4 0  
Month to date cooling degree days 5  
Year to date cooling degree days 1696  
Growing Degree Days 20 (Base 50)    
Moisture  
Dew Point 53 °F    
Average Humidity 55    
Maximum Humidity 69    
Minimum Humidity 37    
Precipitation  
Precipitation 0.00 in 0.14 in 0.89 in (2004)
Month to date precipitation 1.32  
Year to date precipitation 41.27  
Sea Level Pressure  
Sea Level Pressure 29.83 in    
Wind  
Wind Speed 19 mph (SSW)    
Max Wind Speed 29 mph    
Max Gust Speed 38 mph    
Visibility 10 miles    
Events      
T = Trace of Precipitation, MM = Missing Value Source: NWS Daily Summary

Daily Weather History Graph

Daily Weather History Graph

Search for Another Location

Airport:

Trip Planner

Search our weather history database for the weather conditions in past years. The results will help you decide how hot, cold, wet, or windy it might be!

Date:

Astronomy

Nov. 10, 2012 Rise Set
Actual Time 6:53 AM CST 5:11 PM CST
Civil Twilight 6:26 AM CST 5:39 PM CST
Nautical Twilight 5:54 AM CST 6:10 PM CST
Astronomical Twilight 5:23 AM CST 6:41 PM CST
Moon 3:03 AM CST (11/10) 2:55 PM CST (11/10)
Length of Visible Light 11h 13m
Length of Day
10h 17m
Waning Crescent, 14% of the Moon is Illuminated
Nov 10
Waning Crescent
Nov 13
New
Nov 20
First Quarter
Nov 28
Full
Dec 6
Last Quarter

Hourly Weather History & Observations

Time (CST) Temp. Dew Point Humidity Pressure Visibility Wind Dir Wind Speed Gust Speed Precip Events Conditions
4:15 AM 68.0 °F 55.4 °F 64% 29.87 in 10.0 mi SSW 16.1 mph 20.7 mph N/A   Clear
4:35 AM 66.9 °F 54.7 °F 65% 29.87 in - SSW 16.1 mph 26.5 mph N/A   Clear
4:55 AM 66.0 °F 54.3 °F 66% 29.88 in 10.0 mi SSW 16.1 mph 20.7 mph N/A   Clear
5:15 AM 65.8 °F 54.7 °F 67% 29.88 in 10.0 mi South 17.3 mph 23.0 mph N/A   Clear
5:35 AM 64.9 °F 54.5 °F 69% 29.88 in 10.0 mi SSW 17.3 mph 24.2 mph N/A   Clear
5:55 AM 64.4 °F 54.0 °F 69% 29.88 in 10.0 mi SSW 17.3 mph 21.9 mph N/A   Clear
6:15 AM 64.0 °F 53.8 °F 69% 29.89 in 10.0 mi SSW 15.0 mph 25.3 mph N/A   Clear
6:35 AM 63.9 °F 53.6 °F 69% 29.89 in 10.0 mi SSW 17.3 mph 24.2 mph N/A   Clear
6:55 AM 63.9 °F 53.6 °F 69% 29.89 in 10.0 mi SSW 16.1 mph 23.0 mph N/A   Clear
7:15 AM 63.7 °F 53.4 °F 69% 29.90 in 10.0 mi SSW 17.3 mph 25.3 mph N/A   Clear
7:35 AM 63.9 °F 53.2 °F 68% 29.90 in 10.0 mi SSW 16.1 mph 24.2 mph N/A   Clear
7:55 AM 64.2 °F 53.2 °F 67% 29.91 in 10.0 mi SSW 19.6 mph 26.5 mph N/A   Clear
8:15 AM 65.3 °F 53.8 °F 66% 29.91 in 10.0 mi SSW 19.6 mph 28.8 mph N/A   Clear
8:35 AM 66.0 °F 54.1 °F 65% 29.91 in 10.0 mi SSW 23.0 mph 32.2 mph N/A   Clear
8:55 AM 68.2 °F 55.9 °F 65% 29.91 in 10.0 mi SSW 23.0 mph 32.2 mph N/A   Clear
9:15 AM 68.5 °F 55.9 °F 64% 29.91 in 10.0 mi SSW 21.9 mph 27.6 mph N/A   Clear
9:35 AM 68.4 °F 56.1 °F 65% 29.91 in 10.0 mi SSW 25.3 mph 34.5 mph N/A   Clear
9:55 AM 69.8 °F 56.5 °F 63% 29.90 in 10.0 mi SSW 24.2 mph 32.2 mph N/A   Clear
10:15 AM 70.9 °F 55.9 °F 59% 29.90 in 10.0 mi SSW 26.5 mph 34.5 mph N/A   Clear
10:35 AM 70.9 °F 55.6 °F 58% 29.90 in 10.0 mi SSW 28.8 mph 36.8 mph N/A   Clear
10:55 AM 70.9 °F 55.2 °F 58% 29.89 in 10.0 mi SSW 24.2 mph 33.4 mph N/A   Clear
11:15 AM 72.9 °F 55.0 °F 53% 29.88 in 10.0 mi SSW 20.7 mph 33.4 mph N/A   Clear
11:35 AM 73.4 °F 55.0 °F 52% 29.87 in 10.0 mi South 23.0 mph 32.2 mph N/A   Clear
11:55 AM 73.9 °F 54.7 °F 51% 29.86 in 10.0 mi SSW 27.6 mph 34.5 mph N/A   Clear
12:15 PM 75.0 °F 54.3 °F 48% 29.85 in 10.0 mi SSW 24.2 mph 33.4 mph N/A   Clear
12:35 PM 73.4 °F 53.2 °F 49% 29.84 in 10.0 mi SSW 24.2 mph 35.7 mph N/A   Clear
12:55 PM 75.0 °F 53.6 °F 47% 29.83 in 10.0 mi SSW 24.2 mph 34.5 mph N/A   Clear
1:15 PM 76.1 °F 53.8 °F 46% 29.82 in - SSW 25.3 mph 35.7 mph N/A   Clear
1:35 PM 76.1 °F 53.6 °F 45% 29.81 in - SSW 23.0 mph 34.5 mph N/A   Clear
1:55 PM 76.1 °F 52.7 °F 44% 29.80 in - South 23.0 mph 33.4 mph N/A   Clear
2:15 PM 76.1 °F 52.0 °F 43% 29.79 in 10.0 mi South 26.5 mph 38.0 mph N/A   Clear
2:35 PM 76.1 °F 50.5 °F 41% 29.78 in 10.0 mi South 25.3 mph 35.7 mph N/A   Clear
2:55 PM 76.1 °F 49.6 °F 39% 29.78 in 10.0 mi SSW 23.0 mph 33.4 mph N/A   Clear
3:15 PM 76.1 °F 49.8 °F 40% 29.77 in 10.0 mi South 20.7 mph 29.9 mph N/A   Clear
3:35 PM 76.1 °F 49.1 °F 39% 29.77 in 10.0 mi South 23.0 mph 31.1 mph N/A   Clear
3:55 PM 76.1 °F 47.7 °F 37% 29.77 in 10.0 mi SSW 23.0 mph 33.4 mph N/A   Clear
4:15 PM 76.1 °F 48.6 °F 38% 29.77 in 10.0 mi South 17.3 mph 27.6 mph N/A   Clear
4:35 PM 76.1 °F 49.8 °F 40% 29.77 in 10.0 mi South 13.8 mph 25.3 mph N/A   Clear
4:55 PM 73.9 °F 50.4 °F 43% 29.77 in 10.0 mi South 19.6 mph 27.6 mph N/A   Clear
5:15 PM 72.9 °F 51.4 °F 47% 29.77 in 10.0 mi South 20.7 mph 27.6 mph N/A   Clear
5:35 PM 72.1 °F 50.2 °F 46% 29.78 in 10.0 mi South 15.0 mph 24.2 mph N/A   Clear
5:55 PM 71.4 °F 49.5 °F 46% 29.79 in 10.0 mi South 15.0 mph 24.2 mph N/A   Clear
6:15 PM 70.9 °F 50.7 °F 49% 29.79 in 10.0 mi South 16.1 mph 23.0 mph N/A   Clear
6:35 PM 70.9 °F 51.8 °F 51% 29.80 in 10.0 mi South 18.4 mph 23.0 mph N/A   Clear
6:55 PM 70.9 °F 51.6 °F 50% 29.79 in 10.0 mi South 18.4 mph 26.5 mph N/A   Clear
7:15 PM 70.9 °F 51.3 °F 50% 29.79 in 10.0 mi South 19.6 mph 25.3 mph N/A   Clear
7:35 PM 70.9 °F 50.9 °F 49% 29.79 in 10.0 mi South 19.6 mph 28.8 mph N/A   Clear
7:55 PM 70.9 °F 50.9 °F 49% 29.79 in 10.0 mi South 19.6 mph 24.2 mph N/A   Clear
8:15 PM 70.9 °F 51.6 °F 50% 29.79 in 10.0 mi South 16.1 mph 23.0 mph N/A   Clear
8:35 PM 70.9 °F 52.3 °F 52% 29.79 in 10.0 mi South 17.3 mph 23.0 mph N/A   Clear
8:55 PM 70.9 °F 53.2 °F 54% 29.78 in 10.0 mi South 18.4 mph 27.6 mph N/A   Clear
9:15 PM 70.9 °F 53.8 °F 55% 29.77 in 10.0 mi South 21.9 mph 26.5 mph N/A   Clear
9:35 PM 70.9 °F 54.5 °F 56% 29.77 in 10.0 mi South 20.7 mph 31.1 mph N/A   Clear
10:35 PM 70.9 °F 55.8 °F 59% 29.76 in 10.0 mi South 21.9 mph 28.8 mph N/A   Clear
10:55 PM 70.9 °F 56.1 °F 59% 29.77 in 10.0 mi South 24.2 mph 33.4 mph N/A   Clear
11:15 PM 70.9 °F 56.1 °F 59% 29.77 in 10.0 mi South 17.3 mph 31.1 mph N/A   Clear
11:35 PM 70.9 °F 56.5 °F 60% 29.77 in 10.0 mi South 19.6 mph 28.8 mph N/A   Clear
11:55 PM 70.9 °F 56.7 °F 61% 29.76 in 10.0 mi South 19.6 mph 34.5 mph N/A   Clear